Find Local Weather

World > North America > United States > Michigan

Detroit, Michigan Regional Weather

Lat: 42.33N, Lon: 83.05W
Wx Zone: MIZ076
Feedback
Expires:201812181900;;989446
ASUS43 KDTX 181810
RWRMI 
MICHIGAN HOURLY REGIONAL WEATHER ROUNDUP
NATIONAL WEATHER SERVICE DETROIT/PONTIAC MI
ISSUED BY NATIONAL WEATHER SERVICE GRAND RAPIDS MI
100 PM EST TUE DEC 18 2018

NOTE: "FAIR" INDICATES FEW OR NO CLOUDS BELOW 12,000 FEET WITH NO
SIGNIFICANT WEATHER AND/OR OBSTRUCTION TO VISIBILITY.


MIZ047>049-052>055-059>063-066>070-074>076-081>083-181900-
SOUTHEAST LOWER MICHIGAN
  
CITY           SKY/WX    TMP DP  RH WIND       PRES   REMARKS
ADRIAN         PTSUNNY   32  24  72 S7        30.24F WCI  26          
6HR MIN TEMP:  20; 6HR MAX TEMP:  33;                                

ALMA           CLOUDY    30  23  74 S7        30.22F WCI  23          
6HR MIN TEMP:  27; 6HR MAX TEMP:  30;                                

ANN ARBOR      FAIR      34  24  67 S7        30.22F WCI  28          
BAD AXE        FAIR      32  22  66 S6        30.19F WCI  26          
6HR MIN TEMP:  28; 6HR MAX TEMP:  32;                                

DETROIT CITY   FAIR      34  21  59 SW7       30.23F WCI  28          
6HR MIN TEMP:  27; 6HR MAX TEMP:  34;                                

DETROIT        FAIR      34  21  59 S5        30.24F WCI  30          
6HR MIN TEMP:  27; 6HR MAX TEMP:  34;                                

FLINT          FAIR      31  22  69 SW8       30.22F WCI  23          
6HR MIN TEMP:  26; 6HR MAX TEMP:  32;                                

GROSSE ILE     FAIR      33  24  67 S8        30.23F WCI  27          
6HR MIN TEMP:  25; 6HR MAX TEMP:  34;                                

HILLSDALE      FAIR      34  23  64 SW5       30.19F WCI  30          
HOWELL         FAIR      33  24  68 SW9       30.20F WCI  26          
6HR MIN TEMP:  24; 6HR MAX TEMP:  33;                                


CITY           SKY/WX    TMP DP  RH WIND       PRES   REMARKS
JACKSON        FAIR      34  24  67 S8        30.20F WCI  27          
6HR MIN TEMP:  19; 6HR MAX TEMP:  34;                                

LANSING        FAIR      32  25  75 S7        30.21F WCI  26          
6HR MIN TEMP:  21; 6HR MAX TEMP:  33;                                

MASON          FAIR      33  25  71 S3        30.21F                  
6HR MIN TEMP:  24; 6HR MAX TEMP:  33;                                

MONROE         FAIR      34  26  70 W3        30.23F                  
6HR MIN TEMP:  25; 6HR MAX TEMP:  34;                                

MT. CLEMENS    MOSUNNY   36  23  58 S5        30.21F WCI  32          
6HR MIN TEMP:  25; 6HR MAX TEMP:  37;                                

PONTIAC        FAIR      33  21  61 S7        30.19F WCI  27          
6HR MIN TEMP:  26; 6HR MAX TEMP:  33;                                

PORT HOPE        N/A     31  22  69 VRB3      30.19F                  
6HR MIN TEMP:  30; 6HR MAX TEMP:  31;                                

PORT HURON     FAIR      36  21  55 CALM      30.22F                  
TRI CITIES     PTSUNNY   31  23  72 S10       30.22F WCI  22          
6HR MIN TEMP:  27; 6HR MAX TEMP:  31;                                

YPSILANTI      FAIR      35  23  61 SW7       30.23F WCI  29          
6HR MIN TEMP:  26; 6HR MAX TEMP:  35;                                

$$

SKY/WX - Weather  TMP - Temperature  DP - Dew Point  RH - Relative Humidity
WIND - Wind Direction/Speed PRES - Barometric Pressure